STARLINK-11389, 62091

Orbit data source: Space-Track

STARLINK-11389, 62091 is a payload satellite owned by SpaceX/Seattle (US) in LEO that was launched on Mon, 25 Nov 2024 UTC via an FALCON 9 launch vehicle from the Air Force Eastern Test Range (AFETR). Payload-class satellites include a variety of spacecraft equipped with specific instruments for various scientific and technological missions. These include communications satellites like Starlink; space stations such as the ISS; scientific satellites like the Hubble; Earth observation satellites from companies like Planet Labs, Umbra, and HawkEye 360; GPS; miniature CubeSats for education and research; and military/defense satellites.

Loading next visibility...
Identifier
62091, 2024-220D
Orbit
LEO
Country
Flag of USUS
Related business
Manufacturer
SpaceX/Seattle
Mission
Operational Commercial Communications
Bus & Motor
STARLINK V2MD, Unknown motor
Mass
960 kg wet, ~910 kg dry
Launch date (UTC)
2024-11-25 (2 years ago)
Launch vehicle
FALCON 9
Launch site
Air Force Eastern Test Range (AFETR)
Object type
Payload
Rocket body
Debris
Shape & HBR
Box + 2 Pan, 18.1 m
Radar Cross Section
36.964 m², Large (>1 m²)

Expand to show TLE details & history
Last TLE update: 17 hours ago

TLE from 17 hours ago
0 STARLINK-11389
1 62091U 24220D   26171.19967842  .00123334  00000-0  94975-3 0  9994
2 62091  43.0019 145.3289 0002070 269.0349  91.0281 15.70857258 91077
Epoch: 2026-06-20T04:47Z
TLE epoch observation values (Epoch: 2026-06-20T04:47:32.215Z)
Latitude
-0.00005°
Longitude
165.02689°
Altitude
356.242 km
Speed
7.697 km/s
True Right ascension
09h 41m 18s
True Declination
0° 00' 00"
Sunlit
Object was in daylight at epoch
Visualization orbit readout
Latitude
Unknown
Longitude
Unknown
Altitude
Unknown
Speed
Unknown
Apparent Right ascension
Unknown
Apparent Declination
Unknown
Sunlit
N/A
Visualization observer readout
Local Sidereal Time
08:33:02
Azimuth
Unknown
Elevation
Unknown
Doppler factor
Unknown
Orbital elements
Apogee altitude
359.821 km
Perigee altitude
357.033 km
Semi-major axis
6,736.564 km
Eccentricity
0.00021
Inclination
43.0019°
RAAN
145.3289°
Arg. of periapsis
269.0349°
True anomaly
91.05182°
Mean anomaly
91.0281°
Eccentric anomaly
91.03996°
Mean motion
3.92541 °/min
Orbital period
91.71 mins
BSTAR
0.00094975
Loading maneuver chart data...
Computing Atmospheric mass density...
Loading historical data...
Loading historical data...
Loading historical data...
Loading historical data...
Loading historical data...
Loading historical data...
Loading historical data...

Documentation

Showing up to 5 results
|